Regional Weather Roundup
Issued by NWS Little Rock, AR

Home | Current Version | Previous Version | Graphics & Text | Print | Product List | Glossary On
Versions: 1 2 3 4 5 6 7 8 9 10 11 12 13 14 15 16 17 18 19 20 21 22 23 24 25 26 27 28 29 30 31 32
000
ASUS44 KLZK 161205
RWRLZK

WEATHER ROUNDUP FOR ARKANSAS
NATIONAL WEATHER SERVICE LITTLE ROCK AR
600 AM CST SAT DEC 16 2017

NOTE: "FAIR" INDICATES FEW OR NO CLOUDS BELOW 12,000 FEET WITH NO
SIGNIFICANT WEATHER AND/OR OBSTRUCTIONS TO VISIBILITY.

ARZ001-003-010-029-161300-
NORTHWEST ARKANSAS

CITY           SKY/WX    TMP DP  RH WIND       PRES   REMARKS
FAYETTEVILLE   CLEAR     37  26  64 S14       30.06F
6HR MIN TEMP:  25; 6HR MAX TEMP:  37;

FORT SMITH     CLOUDY    28  27  96 NE6       30.13R WCI  22
6HR MIN TEMP:  26; 6HR MAX TEMP:  33;

HARRISON       CLOUDY    34  24  67 SE6       30.06R WCI  29
6HR MIN TEMP:  32; 6HR MAX TEMP:  41;

BENTONVILLE    CLEAR     36  23  59 S6        30.06S
6HR MIN TEMP:  32; 6HR MAX TEMP:  36;

ROGERS         CLEAR     36  24  62 S10       30.05S
6HR MIN TEMP:  35; 6HR MAX TEMP:  37;

SILOAM SPGS    CLOUDY    35  24  64 S8          N/A  WCI  29
6HR MIN TEMP:  33; 6HR MAX TEMP:  36;

HIGHFILL       CLEAR     36  24  62 S8        30.05S
6HR MIN TEMP:  29; 6HR MAX TEMP:  36;

SPRINGDALE     CLEAR     36  23  60 S8        30.07
$$

ARZ004-005-016-161300-
NORTH CENTRAL ARKANSAS

CITY           SKY/WX    TMP DP  RH WIND       PRES   REMARKS
BATESVILLE     PTCLDY    36  28  73 E5        30.15R
6HR MIN TEMP:  33; 6HR MAX TEMP:  38;

FLIPPIN        CLOUDY    34  26  72 CALM      30.10R
6HR MIN TEMP:  28; 6HR MAX TEMP:  34;

$$

ARZ040-041-161300-
WEST CENTRAL ARKANSAS

CITY           SKY/WX    TMP DP  RH WIND       PRES   REMARKS
MENA           CLOUDY    32  32 100 CALM      30.15S
MOUNT IDA      CLOUDY    26  24  92 CALM      30.13S
6HR MIN TEMP:  25; 6HR MAX TEMP:  29; 6HR PCP: TRACE;

$$

ARZ009-017-025-026-028-161300-
NORTHEAST ARKANSAS

CITY           SKY/WX    TMP DP  RH WIND       PRES   REMARKS
JONESBORO      CLOUDY    30  27  88 S7        30.16R WCI  23
6HR MIN TEMP:  30; 6HR MAX TEMP:  37;

NEWPORT        PTCLDY    32  29  88 SW14      30.15R WCI  22
6HR MIN TEMP:  28; 6HR MAX TEMP:  33;

WALNUT RIDGE   CLOUDY    28  26  92 S7        30.14R WCI  21
6HR MIN TEMP:  27; 6HR MAX TEMP:  33;

BLYTHEVILLE    CLOUDY    33  28  81 S8        30.17R WCI  26
6HR MIN TEMP:  33; 6HR MAX TEMP:  36;

$$

ARZ022-023-033-042-044-161300-
CENTRAL ARKANSAS

CITY           SKY/WX    TMP DP  RH WIND       PRES   REMARKS
LITTLE ROCK    CLOUDY    29  28  96 SW6       30.20R WCI  23
6HR MIN TEMP:  28; 6HR MAX TEMP:  36;

N LITTLE ROCK    N/A     32  28  86 CALM      30.21R
6HR MIN TEMP:  32; 6HR MAX TEMP:  36;

JACKSONVILLE   CLOUDY    32  28  86 SW3       30.17R
6HR MIN TEMP:  25; 6HR MAX TEMP:  32;

SEARCY         CLOUDY    24  24 100 SW3       30.19R
6HR MIN TEMP:  24; 6HR MAX TEMP:  28;

HOT SPRINGS    MOCLDY    28  27  96 E3        30.18R
6HR MIN TEMP:  27; 6HR MAX TEMP:  35;

RUSSELLVILLE   CLOUDY    24  22  91 CALM      30.14R
6HR MIN TEMP:  24; 6HR MAX TEMP:  30;

CLINTON        FAIR      21  19  93 CALM      30.16R
$$

ARZ036-161300-
EAST ARKANSAS

CITY           SKY/WX    TMP DP  RH WIND       PRES   REMARKS
WEST MEMPHIS   CLOUDY    33  28  81 S7        30.19R WCI  27
6HR MIN TEMP:  29; 6HR MAX TEMP:  34;

$$

ARZ050-053-066-070-073-161300-
SOUTHWEST ARKANSAS

CITY           SKY/WX    TMP DP  RH WIND       PRES   REMARKS
ARKADELPHIA    FAIR      22  19  89 CALM      30.23R
6HR MIN TEMP:  21; 6HR MAX TEMP:  25;

CAMDEN         CLOUDY    27  23  86 CALM      30.22S
TEXARKANA      PTCLDY    33  28  81 S7        30.19S WCI  27
6HR MIN TEMP:  31; 6HR MAX TEMP:  36;

EL DORADO      CLOUDY    27  26  96 CALM      30.23R
6HR MIN TEMP:  26; 6HR MAX TEMP:  30;

DE QUEEN       CLOUDY    23  23 100 CALM      30.18R
6HR MIN TEMP:  22; 6HR MAX TEMP:  27;

$$

ARZ056-057-069-161300-
SOUTHEAST ARKANSAS

CITY           SKY/WX    TMP DP  RH WIND       PRES   REMARKS
PINE BLUFF     CLOUDY    31  27  85 SW6       30.22R WCI  25
6HR MIN TEMP:  31; 6HR MAX TEMP:  35;

STUTTGART      CLOUDY    33  29  85 S10       30.20S WCI  25
6HR MIN TEMP:  32; 6HR MAX TEMP:  36;

MONTICELLO     CLOUDY    39  30  70 SW9       30.23R
6HR MIN TEMP:  37; 6HR MAX TEMP:  41;


$$






USA.gov is the U.S. government's official web portal to all federal, state and local government web resources and services.